EDW150 LSZH-EDDM

Flight info

Callsign EDW150
Flight time 0h 37m
Altitude 24000
Route DEGES Z6 NUNRI/N0395F230 T103 BETOS BETOS1B
Aircraft A320/M-SDE3FGHIRWY/LB1

Departure

Time 2026-05-07 13:46
Airport Zürich Airport (LSZH)

Arrival

Time 2026-05-07 14:23
Airport Munich Airport (EDDM)
Time Latitude Longitude Altitude Speed Heading
2026-05-07 13:13 47.44871 8.55842 1407 ft 0 kts 244°
2026-05-07 13:34 47.44880 8.55871 1400 ft 4 kts 248°
2026-05-07 13:35 47.44890 8.55909 1403 ft 4 kts 256°
2026-05-07 13:35 47.44894 8.55947 1402 ft 4 kts 279°
2026-05-07 13:35 47.44885 8.55973 1404 ft 1 kts 335°
2026-05-07 13:35 47.44884 8.55973 1404 ft 0 kts 335°
2026-05-07 13:38 47.44885 8.55973 1400 ft 1 kts 335°
2026-05-07 13:38 47.44905 8.55960 1405 ft 5 kts 335°
2026-05-07 13:38 47.44940 8.55920 1406 ft 6 kts 304°
2026-05-07 13:39 47.44949 8.55867 1404 ft 5 kts 278°
2026-05-07 13:39 47.44963 8.55792 1409 ft 9 kts 298°
2026-05-07 13:39 47.45006 8.55737 1404 ft 7 kts 330°
2026-05-07 13:39 47.45050 8.55706 1406 ft 8 kts 335°
2026-05-07 13:40 47.45114 8.55661 1408 ft 12 kts 335°
2026-05-07 13:40 47.45195 8.55605 1409 ft 12 kts 335°
2026-05-07 13:40 47.45273 8.55571 1413 ft 12 kts 350°
2026-05-07 13:40 47.45356 8.55522 1411 ft 14 kts 334°
2026-05-07 13:41 47.45438 8.55466 1404 ft 9 kts 335°
2026-05-07 13:41 47.45505 8.55442 1403 ft 11 kts 20°
2026-05-07 13:41 47.45524 8.55529 1406 ft 7 kts 96°
2026-05-07 13:41 47.45520 8.55590 1407 ft 6 kts 96°
2026-05-07 13:42 47.45516 8.55641 1412 ft 6 kts 96°
2026-05-07 13:42 47.45511 8.55714 1407 ft 8 kts 96°
2026-05-07 13:42 47.45502 8.55836 1410 ft 13 kts 96°
2026-05-07 13:42 47.45494 8.55957 1410 ft 11 kts 96°
2026-05-07 13:43 47.45484 8.56092 1407 ft 14 kts 96°
2026-05-07 13:43 47.45483 8.56221 1408 ft 11 kts 69°
2026-05-07 13:43 47.45532 8.56313 1412 ft 11 kts 51°
2026-05-07 13:43 47.45581 8.56401 1416 ft 11 kts 52°
2026-05-07 13:44 47.45593 8.56512 1415 ft 11 kts 97°
2026-05-07 13:44 47.45585 8.56614 1417 ft 11 kts 96°
2026-05-07 13:44 47.45576 8.56746 1419 ft 13 kts 96°
2026-05-07 13:44 47.45567 8.56869 1420 ft 11 kts 96°
2026-05-07 13:45 47.45569 8.56978 1421 ft 12 kts 67°
2026-05-07 13:45 47.45627 8.57023 1425 ft 8 kts
2026-05-07 13:45 47.45663 8.56988 1424 ft 7 kts 283°
2026-05-07 13:45 47.45665 8.56963 1424 ft 0 kts 276°
2026-05-07 13:46 47.45677 8.56799 1421 ft 50 kts 276°
2026-05-07 13:46 47.45741 8.55912 1410 ft 120 kts 276°
2026-05-07 13:46 47.45839 8.54478 1674 ft 146 kts 278°
2026-05-07 13:46 47.45948 8.52993 2404 ft 147 kts 276°
2026-05-07 13:47 47.46061 8.51522 3129 ft 145 kts 277°
2026-05-07 13:47 47.46166 8.50033 3743 ft 146 kts 276°
2026-05-07 13:47 47.46256 8.48560 4341 ft 144 kts 268°
2026-05-07 13:47 47.45859 8.47154 4702 ft 162 kts 231°
2026-05-07 13:48 47.45099 8.45794 4999 ft 182 kts 238°
2026-05-07 13:48 47.44441 8.44061 5262 ft 205 kts 244°
2026-05-07 13:48 47.43786 8.42095 5706 ft 218 kts 245°
2026-05-07 13:48 47.43119 8.40056 6490 ft 221 kts 245°
2026-05-07 13:49 47.42355 8.38086 7325 ft 224 kts 227°
2026-05-07 13:49 47.41003 8.36956 8118 ft 231 kts 192°
2026-05-07 13:49 47.39394 8.37185 9012 ft 240 kts 159°
2026-05-07 13:49 47.38104 8.38771 9827 ft 251 kts 123°
2026-05-07 13:50 47.37673 8.41276 10581 ft 260 kts 84°
2026-05-07 13:50 47.38315 8.43746 11305 ft 263 kts 51°
2026-05-07 13:50 47.39486 8.45786 12095 ft 266 kts 48°
2026-05-07 13:50 47.40702 8.47859 12924 ft 269 kts 48°
2026-05-07 13:51 47.41932 8.49952 13720 ft 271 kts 48°
2026-05-07 13:51 47.43279 8.51919 14398 ft 274 kts 36°
2026-05-07 13:51 47.44819 8.53589 15092 ft 276 kts 39°
2026-05-07 13:51 47.46051 8.55789 15627 ft 288 kts 65°
2026-05-07 13:52 47.46467 8.57699 15760 ft 302 kts 80°
2026-05-07 13:52 47.46655 8.60905 15955 ft 325 kts 90°
2026-05-07 13:52 47.46596 8.64368 16161 ft 348 kts 94°
2026-05-07 13:52 47.46483 8.68051 16301 ft 371 kts 93°
2026-05-07 13:53 47.46418 8.71964 16537 ft 388 kts 91°
2026-05-07 13:53 47.46442 8.75988 17089 ft 394 kts 89°
2026-05-07 13:53 47.46537 8.80061 17734 ft 399 kts 89°
2026-05-07 13:53 47.46377 8.84172 18339 ft 403 kts 98°
2026-05-07 13:54 47.45853 8.88260 18927 ft 406 kts 102°
2026-05-07 13:54 47.45277 8.92364 19504 ft 410 kts 102°
2026-05-07 13:54 47.44684 8.96500 20087 ft 413 kts 102°
2026-05-07 13:54 47.44083 9.00672 20661 ft 417 kts 102°
2026-05-07 13:55 47.43477 9.04867 21211 ft 420 kts 102°
2026-05-07 13:55 47.42860 9.09114 21749 ft 424 kts 102°
2026-05-07 13:55 47.42315 9.13407 22269 ft 427 kts 96°
2026-05-07 13:55 47.42237 9.17801 22772 ft 431 kts 85°
2026-05-07 13:56 47.42712 9.22189 23242 ft 434 kts 75°
2026-05-07 13:56 47.43730 9.26391 23727 ft 436 kts 64°
2026-05-07 13:56 47.45163 9.30273 23976 ft 437 kts 59°
2026-05-07 13:56 47.46674 9.34157 24039 ft 436 kts 59°
2026-05-07 13:57 47.48190 9.38051 24033 ft 436 kts 59°
2026-05-07 13:57 47.49696 9.41928 24033 ft 436 kts 59°
2026-05-07 13:57 47.51204 9.45816 24029 ft 435 kts 59°
2026-05-07 13:57 47.52708 9.49717 24030 ft 436 kts 59°
2026-05-07 13:58 47.54204 9.53617 24029 ft 436 kts 59°
2026-05-07 13:58 47.55700 9.57517 24028 ft 436 kts 59°
2026-05-07 13:58 47.57070 9.61516 24029 ft 436 kts 67°
2026-05-07 13:58 47.57980 9.65800 24033 ft 437 kts 77°
2026-05-07 13:59 47.58384 9.70251 24034 ft 437 kts 87°
2026-05-07 13:59 47.58299 9.74750 24036 ft 437 kts 94°
2026-05-07 13:59 47.58110 9.79195 24036 ft 437 kts 94°
2026-05-07 13:59 47.57923 9.83702 24037 ft 437 kts 93°
2026-05-07 14:00 47.57741 9.88199 24032 ft 437 kts 93°
2026-05-07 14:00 47.57561 9.92696 24039 ft 437 kts 93°
2026-05-07 14:00 47.57378 9.97193 24039 ft 438 kts 93°
2026-05-07 14:00 47.57191 10.01691 24043 ft 438 kts 93°
2026-05-07 14:01 47.57002 10.06187 24046 ft 438 kts 94°
2026-05-07 14:01 47.56812 10.10634 24044 ft 438 kts 93°
2026-05-07 14:01 47.56620 10.15139 24037 ft 438 kts 93°
2026-05-07 14:01 47.56425 10.19641 24037 ft 438 kts 93°
2026-05-07 14:02 47.56227 10.24156 24038 ft 438 kts 93°
2026-05-07 14:02 47.56027 10.28659 24028 ft 438 kts 93°
2026-05-07 14:02 47.55825 10.33163 24027 ft 439 kts 93°
2026-05-07 14:02 47.55620 10.37678 24031 ft 438 kts 93°
2026-05-07 14:03 47.55413 10.42181 24026 ft 438 kts 93°
2026-05-07 14:03 47.55208 10.46625 24025 ft 438 kts 94°
2026-05-07 14:03 47.55171 10.51183 24026 ft 437 kts 84°
2026-05-07 14:03 47.55651 10.55550 24027 ft 435 kts 74°
2026-05-07 14:04 47.56652 10.59761 24020 ft 433 kts 64°
2026-05-07 14:04 47.58096 10.63660 23923 ft 433 kts 57°
2026-05-07 14:04 47.59637 10.67472 23300 ft 429 kts 57°
2026-05-07 14:04 47.61164 10.71249 22663 ft 425 kts 57°
2026-05-07 14:05 47.62676 10.74998 22065 ft 422 kts 57°
2026-05-07 14:05 47.64167 10.78715 21480 ft 419 kts 57°
2026-05-07 14:05 47.65647 10.82425 20901 ft 416 kts 58°
2026-05-07 14:05 47.67129 10.86096 20338 ft 413 kts 55°
2026-05-07 14:06 47.68879 10.89438 19795 ft 408 kts 45°
2026-05-07 14:06 47.70953 10.92272 19272 ft 403 kts 36°
2026-05-07 14:06 47.73153 10.94855 18803 ft 401 kts 36°
2026-05-07 14:06 47.75307 10.97402 18439 ft 400 kts 37°
2026-05-07 14:07 47.77474 10.99980 18048 ft 398 kts 37°
2026-05-07 14:07 47.79630 11.02553 17636 ft 397 kts 37°
2026-05-07 14:07 47.81778 11.05119 17239 ft 396 kts 37°
2026-05-07 14:07 47.83922 11.07682 16842 ft 394 kts 37°
2026-05-07 14:08 47.86062 11.10236 16454 ft 392 kts 37°
2026-05-07 14:08 47.88188 11.12767 16069 ft 390 kts 37°
2026-05-07 14:08 47.90306 11.15286 15695 ft 389 kts 36°
2026-05-07 14:08 47.92419 11.17801 15317 ft 388 kts 36°
2026-05-07 14:09 47.94523 11.20306 14946 ft 386 kts 36°
2026-05-07 14:09 47.96619 11.22804 14575 ft 385 kts 37°
2026-05-07 14:09 47.98672 11.25255 14221 ft 381 kts 37°
2026-05-07 14:09 48.00730 11.27718 13859 ft 376 kts 37°
2026-05-07 14:10 48.02752 11.30146 13467 ft 370 kts 37°
2026-05-07 14:10 48.04729 11.32563 13055 ft 365 kts 40°
2026-05-07 14:10 48.06411 11.35363 12660 ft 361 kts 53°
2026-05-07 14:10 48.07654 11.38587 12268 ft 356 kts 66°
2026-05-07 14:11 48.08519 11.42022 11882 ft 352 kts 69°
2026-05-07 14:11 48.09348 11.45453 11509 ft 348 kts 69°
2026-05-07 14:11 48.10166 11.48837 11133 ft 345 kts 69°
2026-05-07 14:11 48.10981 11.52206 10763 ft 341 kts 69°
2026-05-07 14:12 48.11766 11.55454 10386 ft 323 kts 69°
2026-05-07 14:12 48.12509 11.58546 10026 ft 311 kts 69°
2026-05-07 14:12 48.13256 11.61570 9635 ft 308 kts 66°
2026-05-07 14:12 48.14100 11.64463 9234 ft 306 kts 65°
2026-05-07 14:13 48.14974 11.67364 8846 ft 304 kts 64°
2026-05-07 14:13 48.15836 11.70234 8466 ft 301 kts 64°
2026-05-07 14:13 48.16689 11.73081 8201 ft 297 kts 64°
2026-05-07 14:13 48.17529 11.75891 7942 ft 295 kts 64°
2026-05-07 14:14 48.18368 11.78697 7692 ft 294 kts 64°
2026-05-07 14:14 48.19196 11.81482 7440 ft 292 kts 64°
2026-05-07 14:14 48.20021 11.84257 7191 ft 291 kts 64°
2026-05-07 14:14 48.20845 11.87021 6944 ft 290 kts 64°
2026-05-07 14:15 48.21665 11.89770 6702 ft 289 kts 64°
2026-05-07 14:15 48.22477 11.92514 6452 ft 287 kts 65°
2026-05-07 14:15 48.23274 11.95211 6191 ft 286 kts 64°
2026-05-07 14:15 48.24075 11.97929 5942 ft 284 kts 64°
2026-05-07 14:16 48.24870 12.00637 5682 ft 283 kts 64°
2026-05-07 14:16 48.25661 12.03338 5430 ft 283 kts 64°
2026-05-07 14:16 48.26455 12.06037 5175 ft 281 kts 64°
2026-05-07 14:16 48.27238 12.08720 5018 ft 281 kts 65°
2026-05-07 14:17 48.28183 12.11257 5002 ft 278 kts 46°
2026-05-07 14:17 48.29719 12.12920 5003 ft 267 kts 17°
2026-05-07 14:17 48.31454 12.13412 4998 ft 243 kts 355°
2026-05-07 14:17 48.33041 12.13030 5004 ft 222 kts 337°
2026-05-07 14:18 48.34357 12.12017 5002 ft 205 kts 320°
2026-05-07 14:18 48.35330 12.10618 5028 ft 188 kts 305°
2026-05-07 14:18 48.35970 12.09021 5008 ft 172 kts 291°
2026-05-07 14:18 48.36309 12.07321 4948 ft 170 kts 278°
2026-05-07 14:19 48.36363 12.05546 4792 ft 170 kts 266°
2026-05-07 14:19 48.36233 12.03789 4585 ft 169 kts 265°
2026-05-07 14:19 48.36103 12.02042 4364 ft 167 kts 264°
2026-05-07 14:19 48.35974 12.00305 4138 ft 167 kts 264°
2026-05-07 14:20 48.35844 11.98569 3907 ft 168 kts 265°
2026-05-07 14:20 48.35715 11.96845 3678 ft 167 kts 265°
2026-05-07 14:20 48.35588 11.95157 3463 ft 156 kts 266°
2026-05-07 14:20 48.35472 11.93613 3261 ft 144 kts 267°
2026-05-07 14:21 48.35359 11.92110 3070 ft 141 kts 266°
2026-05-07 14:21 48.35252 11.90678 2893 ft 138 kts 266°
2026-05-07 14:21 48.35144 11.89243 2705 ft 138 kts 266°
2026-05-07 14:21 48.35034 11.87784 2506 ft 138 kts 266°
2026-05-07 14:22 48.34926 11.86368 2320 ft 139 kts 266°
2026-05-07 14:22 48.34812 11.84911 2107 ft 142 kts 269°
2026-05-07 14:22 48.34700 11.83415 1883 ft 146 kts 266°
2026-05-07 14:22 48.34588 11.81913 1722 ft 145 kts 268°
2026-05-07 14:23 48.34473 11.80399 1513 ft 145 kts 269°
2026-05-07 14:23 48.34371 11.79003 1464 ft 118 kts 264°
2026-05-07 14:23 48.34296 11.78064 1468 ft 55 kts 263°
2026-05-07 14:23 48.34260 11.77600 1468 ft 27 kts 263°
2026-05-07 14:24 48.34250 11.77323 1463 ft 27 kts 279°
2026-05-07 14:24 48.34316 11.77072 1466 ft 25 kts 293°
2026-05-07 14:24 48.34358 11.76923 1464 ft 11 kts 293°
2026-05-07 14:24 48.34388 11.76817 1465 ft 10 kts 293°
2026-05-07 14:25 48.34400 11.76773 1464 ft 0 kts 294°
2026-05-07 14:25 48.34401 11.76772 1464 ft 1 kts 294°
2026-05-07 14:25 48.34439 11.76709 1466 ft 13 kts 334°
2026-05-07 14:26 48.34537 11.76685 1459 ft 16 kts 353°
2026-05-07 14:26 48.34635 11.76668 1459 ft 11 kts 353°
2026-05-07 14:26 48.34689 11.76660 1457 ft 7 kts 359°
2026-05-07 14:26 48.34740 11.76680 1462 ft 10 kts 43°
2026-05-07 14:27 48.34756 11.76785 1466 ft 11 kts 83°
2026-05-07 14:27 48.34765 11.76908 1466 ft 12 kts 84°
2026-05-07 14:27 48.34775 11.77028 1465 ft 11 kts 83°
2026-05-07 14:27 48.34784 11.77144 1457 ft 12 kts 83°
2026-05-07 14:28 48.34793 11.77262 1462 ft 11 kts 83°
2026-05-07 14:28 48.34776 11.77368 1460 ft 12 kts 130°
2026-05-07 14:28 48.34692 11.77406 1461 ft 13 kts 174°
2026-05-07 14:28 48.34632 11.77474 1463 ft 12 kts 102°
2026-05-07 14:29 48.34641 11.77615 1462 ft 14 kts 83°
2026-05-07 14:29 48.34651 11.77756 1460 ft 14 kts 84°
2026-05-07 14:29 48.34679 11.77882 1465 ft 12 kts 38°
2026-05-07 14:29 48.34762 11.77883 1463 ft 14 kts 351°
2026-05-07 14:30 48.34852 11.77853 1460 ft 13 kts 332°
2026-05-07 14:30 48.34941 11.77809 1466 ft 15 kts 355°
2026-05-07 14:30 48.35050 11.77791 1464 ft 16 kts 353°
2026-05-07 14:30 48.35144 11.77774 1459 ft 12 kts 353°
2026-05-07 14:31 48.35201 11.77764 1466 ft 6 kts 353°
2026-05-07 14:31 48.35222 11.77758 1466 ft 2 kts 335°
2026-05-07 14:31 48.35228 11.77727 1466 ft 3 kts 272°
2026-05-07 14:31 48.35226 11.77699 1462 ft 0 kts 262°
2026-05-07 14:32 48.35226 11.77695 1462 ft 0 kts 262°